STARLINK-34884, 66287

Orbit data source: Space-Track

STARLINK-34884, 66287 is a payload satellite owned by SpaceX/Seattle (US) in LEO that was launched on Fri, 31 Oct 2025 UTC via an FALCON 9 launch vehicle from the Air Force Western Test Range (AFWTR). Payload-class satellites include a variety of spacecraft equipped with specific instruments for various scientific and technological missions. These include communications satellites like Starlink; space stations such as the ISS; scientific satellites like the Hubble; Earth observation satellites from companies like Planet Labs, Umbra, and HawkEye 360; GPS; miniature CubeSats for education and research; and military/defense satellites.

Loading next visibility...
Identifier
66287, 2025-247Y
Orbit
LEO
Country
Flag of USUS
Related business
Manufacturer
SpaceX/Seattle
Mission
Operational Commercial Communications
Bus & Motor
STARLINK V2MO, Unknown motor
Mass
575 kg wet, ~530 kg dry
Launch date (UTC)
2025-10-31 (8 months ago)
Launch vehicle
FALCON 9
Launch site
Air Force Western Test Range (AFWTR)
Object type
Payload
Rocket body
Debris
Shape & HBR
Box + 2 Pan, 17.7 m
Radar Cross Section
36.964 m², Large (>1 m²)

Expand to show TLE details & history
Last TLE update: 22 hours ago

TLE from 22 hours ago
0 STARLINK-34884
1 66287U 25247Y   26170.94369986  .00029880  00000-0  89151-3 0  9993
2 66287  53.1589  74.7516 0001067 101.8361 258.2761 15.34415881 36714
Epoch: 2026-06-19T22:38Z
TLE epoch observation values (Epoch: 2026-06-19T22:38:55.667Z)
Latitude
-0.00007°
Longitude
-173.14581°
Altitude
463.706 km
Speed
7.636 km/s
True Right ascension
04h 59m 00s
True Declination
0° 00' 00"
Sunlit
Object was in daylight at epoch
Visualization orbit readout
Latitude
Unknown
Longitude
Unknown
Altitude
Unknown
Speed
Unknown
Apparent Right ascension
Unknown
Apparent Declination
Unknown
Sunlit
N/A
Visualization observer readout
Local Sidereal Time
07:17:14
Azimuth
Unknown
Elevation
Unknown
Doppler factor
Unknown
Orbital elements
Apogee altitude
463.643 km
Perigee altitude
462.183 km
Semi-major axis
6,841.05 km
Eccentricity
0.00011
Inclination
53.1589°
RAAN
74.7516°
Arg. of periapsis
101.8361°
True anomaly
258.26413°
Mean anomaly
258.2761°
Eccentric anomaly
258.27011°
Mean motion
3.83583 °/min
Orbital period
93.85 mins
BSTAR
0.00089151
Loading maneuver chart data...
Computing Atmospheric mass density...
Loading historical data...
Loading historical data...
Loading historical data...
Loading historical data...
Loading historical data...
Loading historical data...
Loading historical data...

Documentation

Showing up to 5 results
|